FW5816 Weather Reports


Display with metric or nautical units.
time (UTC)temp
F
wind
direction
speed
MPH
gust
MPH
rain 1hr
in
rain 24hr
in
rain mn
in
humidity
%
barometer
mb
20260510234533 70 360 2.0 4.0 0.00 0.00 0.00 48 1016.5
20260510234015 70 21 2.0 5.0 0.00 0.00 0.00 47 1016.6
20260510233513 71 25 2.0 5.0 0.00 0.00 0.00 47 1016.5
20260510233030 71 48 3.0 5.0 0.00 0.00 0.00 46 1016.5
20260510232514 71 7 1.0 5.0 0.00 0.00 0.00 46 1016.5
20260510232012 71 41 3.0 5.0 0.00 0.00 0.00 44 1016.5
20260510231533 72 51 2.0 7.0 0.00 0.00 0.00 44 1016.5
20260510231014 72 343 3.0 7.0 0.00 0.00 0.00 44 1016.3
20260510230512 72 45 3.0 7.0 0.00 0.00 0.00 43 1016.3
20260510230038 72 340 3.0 7.0 0.00 0.00 0.00 44 1016.4
20260510225511 73 30 3.0 7.0 0.00 0.00 0.00 43 1016.4
20260510225016 73 1 3.0 7.0 0.00 0.00 0.00 42 1016.4
20260510224532 73 34 3.0 6.0 0.00 0.00 0.00 43 1016.2
20260510224011 72 46 1.0 7.0 0.00 0.00 0.00 44 1016.3
20260510223514 72 24 4.0 8.0 0.00 0.00 0.00 42 1016.3
20260510223030 73 46 4.0 8.0 0.00 0.00 0.00 42 1016.4
20260510222513 73 334 3.0 8.0 0.00 0.00 0.00 42 1016.4
20260510222016 73 331 2.0 8.0 0.00 0.00 0.00 43 1016.4
20260510221530 73 35 2.0 7.0 0.00 0.00 0.00 42 1016.4
20260510221013 73 330 1.0 7.0 0.00 0.00 0.00 42 1016.4
20260510220513 73 302 2.0 7.0 0.00 0.00 0.00 41 1016.3
20260510220031 74 35 4.0 7.0 0.00 0.00 0.00 40 1016.3
20260510215511 74 304 2.0 7.0 0.00 0.00 0.00 41 1016.2
20260510215013 74 325 4.0 10.0 0.00 0.00 0.00 41 1016.2
20260510214531 74 345 2.0 10.0 0.00 0.00 0.00 41 1016.2
20260510214015 73 31 5.0 10.0 0.00 0.00 0.00 41 1016.2
20260510213513 74 46 5.0 11.0 0.00 0.00 0.00 40 1016.2
20260510213031 74 351 4.0 11.0 0.00 0.00 0.00 41 1016.2
20260510212513 75 325 2.0 8.0 0.00 0.00 0.00 43 1016.2
20260510212018 74 186 1.0 8.0 0.00 0.00 0.00 40 1016.2
20260510211554 74 310 4.0 8.0 0.00 0.00 0.00 41 1016.2
20260510211013 74 21 3.0 8.0 0.00 0.00 0.00 41 1016.2
20260510210512 74 14 4.0 8.0 0.00 0.00 0.00 43 1016.1
20260510210032 73 31 2.0 8.0 0.00 0.00 0.00 43 1016.1
20260510205513 73 358 3.0 7.0 0.00 0.00 0.00 44 1016.2
20260510205018 73 36 3.0 7.0 0.00 0.00 0.00 45 1016.0
20260510204533 73 347 3.0 7.0 0.00 0.00 0.00 46 1016.1
20260510204011 74 338 4.0 11.0 0.00 0.00 0.00 45 1016.2
20260510203514 74 348 2.0 11.0 0.00 0.00 0.00 45 1016.3
20260510203034 74 24 3.0 14.0 0.00 0.00 0.00 47 1016.2
20260510202513 73 18 6.0 14.0 0.00 0.00 0.00 47 1016.1
20260510202010 74 337 4.0 12.0 0.00 0.00 0.00 46 1016.1
20260510201530 74 258 3.0 11.0 0.00 0.00 0.00 45 1016.0
20260510201013 73 55 6.0 12.0 0.00 0.00 0.00 45 1016.1
20260510200537 73 342 6.0 12.0 0.00 0.00 0.00 47 1016.1
20260510200034 74 49 7.0 12.0 0.00 0.00 0.00 46 1016.2
20260510195512 74 338 1.0 7.0 0.00 0.00 0.00 50 1016.2
20260510195011 73 324 1.0 12.0 0.00 0.00 0.00 48 1016.1
20260510194533 74 307 4.0 12.0 0.00 0.00 0.00 50 1016.1
20260510194012 73 347 5.0 7.0 0.00 0.00 0.00 48 1016.1
20260510193512 73 0 1.0 8.0 0.00 0.00 0.00 50 1016.0
20260510193030 72 37 2.0 8.0 0.00 0.00 0.00 48 1016.1
20260510192511 73 4 3.0 8.0 0.00 0.00 0.00 48 1016.2
20260510192014 73 299 2.0 8.0 0.00 0.00 0.00 51 1016.2
20260510191548 73 316 4.0 11.0 0.00 0.00 0.00 50 1016.1
20260510191011 73 346 6.0 11.0 0.00 0.00 0.00 52 1016.1
20260510190514 73 342 1.0 8.0 0.00 0.00 0.00 54 1016.0
20260510190041 73 306 2.0 12.0 0.00 0.00 0.00 55 1016.2
20260510185518 73 339 3.0 12.0 0.00 0.00 0.00 57 1016.0
20260510185016 72 37 5.0 12.0 0.00 0.00 0.00 55 1016.0
20260510184531 73 36 6.0 9.0 0.00 0.00 0.00 54 1016.2
20260510184014 74 268 2.0 8.0 0.00 0.00 0.00 56 1016.2
20260510183518 73 283 2.0 8.0 0.00 0.00 0.00 58 1016.1
20260510183032 73 357 3.0 11.0 0.00 0.00 0.00 56 1016.0
20260510182513 73 257 2.0 13.0 0.00 0.00 0.00 55 1016.2
20260510182014 73 322 7.0 13.0 0.00 0.00 0.00 59 1016.1
20260510181532 73 345 3.0 12.0 0.00 0.00 0.00 59 1016.0
20260510181019 73 353 6.0 12.0 0.00 0.00 0.00 58 1016.1
20260510180514 73 335 5.0 12.0 0.00 0.00 0.00 60 1016.1
20260510180034 72 303 4.0 12.0 0.00 0.00 0.00 60 1016.2
20260510175513 72 41 5.0 11.0 0.00 0.00 0.00 59 1016.1
20260510175012 72 13 5.0 12.0 0.00 0.00 0.00 62 1016.2
20260510174530 71 346 6.0 13.0 0.00 0.00 0.00 62 1016.1
20260510174014 71 13 7.0 13.0 0.00 0.00 0.00 61 1016.1
20260510173515 72 348 6.0 13.0 0.00 0.00 0.00 61 1016.2
20260510173031 72 337 3.0 7.0 0.00 0.00 0.00 62 1016.1
20260510172513 72 354 3.0 9.0 0.00 0.00 0.00 63 1016.1
20260510172020 72 38 3.0 9.0 0.00 0.00 0.00 63 1016.2
20260510171536 72 72 5.0 9.0 0.00 0.00 0.00 63 1016.2
20260510171012 71 327 4.0 9.0 0.00 0.00 0.00 65 1016.2
20260510170518 72 309 4.0 9.0 0.00 0.00 0.00 62 1016.1
20260510170033 72 70 0.0 8.0 0.00 0.00 0.00 65 1016.0
20260510165512 71 0 2.0 9.0 0.00 0.00 0.00 65 1016.0
20260510165014 71 11 3.0 9.0 0.00 0.00 0.00 63 1016.1
20260510164530 71 36 4.0 9.0 0.00 0.00 0.00 64 1016.1
20260510164010 71 300 2.0 6.0 0.00 0.00 0.00 65 1016.0
20260510163511 71 345 3.0 9.0 0.00 0.00 0.00 64 1016.0
20260510163032 71 314 4.0 9.0 0.00 0.00 0.00 63 1016.0
20260510162510 71 69 5.0 9.0 0.00 0.00 0.00 63 1016.0
20260510162014 71 280 3.0 8.0 0.00 0.00 0.00 63 1015.9
20260510161531 71 350 5.0 8.0 0.00 0.00 0.00 63 1015.7
20260510161011 71 345 2.0 6.0 0.00 0.00 0.00 62 1015.8
20260510160513 72 306 2.0 8.0 0.00 0.00 0.00 63 1015.7
20260510160032 71 326 3.0 8.0 0.00 0.00 0.00 64 1015.6
20260510155511 71 230 3.0 6.0 0.00 0.00 0.00 66 1015.6
20260510155011 71 345 2.0 5.0 0.00 0.00 0.00 65 1015.4
20260510154549 70 359 2.0 6.0 0.00 0.00 0.00 64 1015.5
20260510154016 70 262 2.0 6.0 0.00 0.00 0.00 65 1015.5
20260510153515 70 250 1.0 5.0 0.00 0.00 0.00 64 1015.4
20260510153033 70 276 0.0 5.0 0.00 0.00 0.00 66 1015.3
20260510152511 69 305 2.0 5.0 0.00 0.00 0.00 67 1015.3
20260510152015 69 4 3.0 7.0 0.00 0.00 0.00 66 1015.3
20260510151531 69 340 3.0 7.0 0.00 0.00 0.00 66 1015.3
20260510151014 69 246 1.0 8.0 0.00 0.00 0.00 68 1015.4
20260510150511 68 210 4.0 8.0 0.00 0.00 0.00 68 1015.3
20260510150032 69 252 3.0 7.0 0.00 0.00 0.00 67 1015.3
20260510145511 68 286 3.0 5.0 0.00 0.00 0.00 69 1015.4
20260510145011 68 336 1.0 5.0 0.00 0.00 0.00 68 1015.4
20260510144539 68 236 1.0 5.0 0.00 0.00 0.00 69 1015.2
20260510144012 67 276 2.0 6.0 0.00 0.00 0.00 71 1015.2
20260510143512 67 335 2.0 6.0 0.00 0.00 0.00 70 1015.3
20260510143039 67 344 2.0 6.0 0.00 0.00 0.00 71 1015.2
20260510142513 66 274 1.0 6.0 0.00 0.00 0.00 71 1015.2
20260510142013 66 214 3.0 6.0 0.00 0.00 0.00 70 1015.2
20260510141531 67 278 3.0 6.0 0.00 0.00 0.00 70 1015.2
20260510141011 67 198 2.0 8.0 0.00 0.00 0.00 71 1015.1
20260510140513 66 328 4.0 8.0 0.00 0.00 0.00 71 1015.0
20260510140036 66 1 3.0 8.0 0.00 0.00 0.00 70 1015.0
20260510135510 66 330 2.0 6.0 0.00 0.00 0.00 71 1015.0
20260510135014 66 280 3.0 6.0 0.00 0.00 0.00 71 1015.0
20260510134532 66 290 3.0 6.0 0.00 0.00 0.00 71 1014.7
20260510134009 66 235 3.0 6.0 0.00 0.00 0.00 72 1014.6
20260510133513 66 354 3.0 5.0 0.00 0.00 0.00 72 1014.7
20260510133032 65 284 1.0 4.0 0.00 0.00 0.00 75 1014.6
20260510132515 64 229 1.0 2.0 0.00 0.00 0.00 75 1014.7
20260510132014 64 279 0.0 3.0 0.00 0.00 0.00 75 1014.6
20260510131536 64 283 0.0 3.0 0.00 0.00 0.00 75 1014.4
20260510131017 65 279 1.0 2.0 0.00 0.00 0.00 74 1014.5
20260510130512 65 252 0.0 1.0 0.00 0.00 0.00 75 1014.4
20260510130029 64 0 0.0 1.0 0.00 0.00 0.00 74 1014.4
20260510125510 64 0 0.0 1.0 0.00 0.00 0.00 74 1014.3
20260510125014 64 0 0.0 1.0 0.00 0.00 0.00 74 1014.1
20260510124530 64 0 0.0 1.0 0.00 0.00 0.00 74 1014.1
20260510124015 63 0 0.0 1.0 0.00 0.00 0.00 74 1014.0
20260510123516 63 0 0.0 1.0 0.00 0.00 0.00 76 1014.0
20260510123034 62 0 0.0 1.0 0.00 0.00 0.00 76 1013.8
20260510122512 62 0 0.0 1.0 0.00 0.00 0.00 77 1013.7
20260510122018 61 0 0.0 1.0 0.00 0.00 0.00 77 1013.5
20260510121530 61 0 0.0 1.0 0.00 0.00 0.00 77 1013.3
20260510121010 61 0 0.0 1.0 0.00 0.00 0.00 78 1013.3
20260510120512 60 0 0.0 1.0 0.00 0.00 0.00 78 1013.1
20260510120032 60 238 0.0 1.0 0.00 0.00 0.00 78 1013.1
20260510115510 60 0 0.0 1.0 0.00 0.00 0.00 79 1013.2
20260510115014 60 238 0.0 1.0 0.00 0.00 0.00 78 1013.0
20260510114532 60 238 0.0 1.0 0.00 0.00 0.00 79 1013.0
20260510114012 60 238 0.0 1.0 0.00 0.00 0.00 78 1013.0
20260510113517 60 238 0.0 1.0 0.00 0.00 0.00 77 1012.9
20260510113031 60 238 0.0 1.0 0.00 0.00 0.00 76 1013.1
20260510112513 60 238 0.0 1.0 0.00 0.00 0.00 76 1013.0
20260510112011 60 238 0.0 1.0 0.00 0.00 0.00 75 1013.1
20260510111530 60 0 0.0 1.0 0.00 0.00 0.00 75 1013.0
20260510111013 60 0 0.0 1.0 0.00 0.00 0.00 75 1012.9
20260510110518 60 0 0.0 1.0 0.00 0.00 0.00 75 1013.0
20260510110037 60 0 0.0 1.0 0.00 0.00 0.00 75 1013.0
20260510105510 60 0 0.0 1.0 0.00 0.00 0.00 75 1013.0
20260510105010 60 0 0.0 1.0 0.00 0.00 0.00 75 1013.0
20260510104530 60 0 0.0 1.0 0.00 0.00 0.00 75 1012.8
20260510104013 60 239 0.0 1.0 0.00 0.00 0.00 75 1012.7
20260510103510 60 0 0.0 1.0 0.00 0.00 0.00 75 1012.7
20260510103030 60 0 0.0 2.0 0.00 0.00 0.00 75 1012.5
20260510102559 60 238 0.0 2.0 0.00 0.00 0.00 75 1012.4
20260510102012 60 276 0.0 1.0 0.00 0.00 0.00 76 1012.1
20260510101529 60 276 0.0 1.0 0.00 0.00 0.00 76 1012.0
20260510101010 60 276 0.0 1.0 0.00 0.00 0.00 76 1012.0
20260510100513 60 0 0.0 1.0 0.00 0.00 0.00 76 1012.1
20260510100029 60 0 0.0 1.0 0.00 0.00 0.00 77 1012.2
20260510095511 59 0 0.0 2.0 0.00 0.00 0.00 76 1012.0
20260510095016 59 276 0.0 3.0 0.00 0.00 0.00 77 1012.1
20260510094545 59 276 1.0 3.0 0.00 0.00 0.00 77 1012.1
20260510094010 59 279 0.0 1.0 0.00 0.00 0.00 78 1012.2
20260510093512 59 0 0.0 3.0 0.00 0.00 0.00 78 1012.3
20260510093048 58 279 0.0 3.0 0.00 0.00 0.00 79 1012.2
20260510092512 58 345 0.0 2.0 0.00 0.00 0.00 80 1012.2
20260510092016 58 345 0.0 2.0 0.00 0.00 0.00 81 1012.1
20260510091541 58 345 0.0 2.0 0.00 0.00 0.00 80 1012.0
20260510091012 58 0 0.0 1.0 0.00 0.00 0.00 79 1011.6
20260510090512 58 127 0.0 1.0 0.00 0.00 0.00 79 1011.6
20260510090030 59 127 0.0 1.0 0.00 0.00 0.00 78 1011.6
20260510085512 60 159 0.0 1.0 0.00 0.00 0.00 76 1011.6
20260510085015 60 159 0.0 1.0 0.00 0.00 0.00 74 1011.6
20260510084529 61 159 0.0 1.0 0.00 0.00 0.00 73 1011.7
20260510084012 60 0 0.0 1.0 0.00 0.00 0.00 73 1011.7
20260510083512 60 180 0.0 1.0 0.00 0.00 0.00 74 1011.7
20260510083033 60 263 0.0 1.0 0.00 0.00 0.00 75 1011.6
20260510082512 60 262 0.0 1.0 0.00 0.00 0.00 76 1011.6
20260510082012 59 265 0.0 1.0 0.00 0.00 0.00 77 1011.6
20260510081530 58 136 0.0 1.0 0.00 0.00 0.00 78 1011.6
20260510081012 58 136 0.0 1.0 0.00 0.00 0.00 79 1011.5
20260510080513 58 0 0.0 0.0 0.00 0.00 0.00 79 1011.4
20260510080030 58 0 0.0 0.0 0.00 0.00 0.00 78 1011.3
20260510075512 58 0 0.0 1.0 0.00 0.00 0.00 78 1011.2
20260510075012 59 0 0.0 1.0 0.00 0.00 0.00 78 1011.1
20260510074532 59 0 0.0 1.0 0.00 0.00 0.00 78 1011.0
20260510074010 59 0 0.0 1.0 0.00 0.00 0.00 77 1011.0
20260510073511 59 0 0.0 1.0 0.00 0.00 0.00 77 1011.0
20260510073040 59 133 0.0 1.0 0.00 0.00 0.00 77 1010.9
20260510072509 59 0 0.0 1.0 0.00 0.00 0.00 77 1011.1
20260510072011 59 134 0.0 1.0 0.00 0.00 0.00 77 1010.9
20260510071529 59 133 0.0 1.0 0.00 0.00 0.00 77 1011.0
20260510071010 59 0 0.0 1.0 0.00 0.00 0.00 77 1010.9
20260510070510 59 133 0.0 2.0 0.00 0.00 0.00 77 1010.9
20260510070034 59 134 0.0 2.0 0.00 0.00 0.00 77 1010.8
20260510065510 59 133 0.0 2.0 0.00 0.00 0.00 77 1010.8
20260510065013 59 0 0.0 1.0 0.00 0.00 0.00 76 1010.8
20260510064532 59 271 0.0 1.0 0.00 0.00 0.00 76 1010.8
20260510064010 60 271 0.0 1.0 0.00 0.00 0.00 75 1010.7
20260510063513 60 271 0.0 1.0 0.00 0.00 0.00 75 1010.8
20260510063032 61 271 0.0 1.0 0.00 0.00 0.00 74 1010.9
20260510062511 61 271 0.0 1.0 0.00 0.00 0.00 72 1010.9
20260510062014 61 271 0.0 1.0 0.00 0.00 0.00 72 1011.0
20260510061532 61 0 0.0 1.0 0.00 0.00 0.00 72 1011.0
20260510061012 61 0 0.0 1.0 0.00 0.00 0.00 72 1011.0
20260510060515 61 0 0.0 1.0 0.00 0.00 0.00 72 1011.1
20260510060032 61 0 0.0 1.0 0.00 0.00 0.00 71 1011.1
20260510055510 61 0 0.0 1.0 0.00 0.00 0.00 71 1011.1
20260510055010 61 0 0.0 0.0 0.00 0.00 0.00 71 1011.1
20260510054532 62 0 0.0 0.0 0.00 0.00 0.00 70 1011.2
20260510054011 62 0 0.0 1.0 0.00 0.00 0.00 71 1011.3
20260510053512 62 0 0.0 1.0 0.00 0.00 0.00 71 1011.3
20260510053050 62 271 0.0 1.0 0.00 0.00 0.00 70 1011.5
20260510052513 63 0 0.0 1.0 0.00 0.00 0.00 70 1011.3
20260510052017 63 271 0.0 1.0 0.00 0.00 0.00 69 1011.3
20260510051530 63 0 0.0 1.0 0.00 0.00 0.00 68 1011.4
20260510051011 63 271 0.0 1.0 0.00 0.00 0.00 69 1011.2
20260510050510 63 276 0.0 1.0 0.00 0.00 0.00 68 1011.3
20260510050030 64 0 0.0 2.0 0.00 0.00 0.00 67 1011.3
20260510045510 64 0 0.0 2.0 0.00 0.00 0.00 67 1011.4
20260510045013 64 265 0.0 2.0 0.00 0.00 0.00 66 1011.5
20260510044530 64 257 0.0 2.0 0.00 0.00 0.00 66 1011.5
20260510044011 65 0 0.0 1.0 0.00 0.00 0.00 65 1011.4
20260510043513 65 266 0.0 1.0 0.00 0.00 0.00 65 1011.4
20260510043040 65 266 0.0 2.0 0.00 0.00 0.00 65 1011.3
20260510042512 65 266 0.0 2.0 0.00 0.00 0.00 64 1011.3
20260510042017 65 268 0.0 3.0 0.00 0.00 0.00 64 1011.3
20260510041531 65 233 0.0 3.0 0.00 0.00 0.00 64 1011.3
20260510041011 65 281 0.0 3.0 0.00 0.00 0.00 64 1011.2
20260510040513 66 245 1.0 3.0 0.00 0.00 0.00 64 1011.3
20260510040039 66 139 1.0 3.0 0.00 0.00 0.00 63 1011.3
20260510035514 66 248 1.0 3.0 0.00 0.00 0.00 63 1011.4
20260510035016 66 253 1.0 3.0 0.00 0.00 0.00 63 1011.3
20260510034532 66 259 1.0 5.0 0.00 0.00 0.00 63 1011.3
20260510034015 66 237 1.0 5.0 0.00 0.00 0.00 63 1011.3
20260510033517 66 262 0.0 3.0 0.00 0.00 0.00 63 1011.3
20260510033033 66 251 1.0 3.0 0.00 0.00 0.00 62 1011.3
20260510032514 66 257 0.0 3.0 0.00 0.00 0.00 62 1011.3
20260510032018 66 244 0.0 3.0 0.00 0.00 0.00 61 1011.3
20260510031534 67 291 1.0 3.0 0.00 0.00 0.00 61 1011.3
20260510031015 67 254 1.0 3.0 0.00 0.00 0.00 61 1011.3
20260510030512 67 172 1.0 3.0 0.00 0.00 0.00 60 1011.2
20260510030031 67 277 1.0 3.0 0.00 0.00 0.00 60 1011.1
20260510025514 67 221 1.0 3.0 0.00 0.00 0.00 60 1011.1
20260510025014 67 174 1.0 3.0 0.00 0.00 0.00 59 1011.1
20260510024531 67 166 1.0 3.0 0.00 0.00 0.00 59 1011.1
20260510024019 68 272 0.0 3.0 0.00 0.00 0.00 59 1011.2
20260510023513 68 198 1.0 3.0 0.00 0.00 0.00 59 1011.0
20260510023032 68 219 1.0 3.0 0.00 0.00 0.00 58 1011.0
20260510022515 68 171 1.0 3.0 0.00 0.00 0.00 58 1011.0
20260510022015 68 198 1.0 3.0 0.00 0.00 0.00 57 1010.9
20260510021539 68 261 1.0 3.0 0.00 0.00 0.00 57 1010.8
20260510021011 68 269 1.0 3.0 0.00 0.00 0.00 57 1010.8
20260510020513 69 269 1.0 3.0 0.00 0.00 0.00 57 1010.5
20260510020032 69 184 1.0 4.0 0.00 0.00 0.00 56 1010.3
20260510015514 69 267 1.0 4.0 0.00 0.00 0.00 56 1010.3
20260510015014 69 248 2.0 4.0 0.00 0.00 0.00 56 1010.1
20260510014535 69 256 1.0 3.0 0.00 0.00 0.00 55 1010.1
20260510014014 69 262 1.0 3.0 0.00 0.00 0.00 55 1010.0
20260510013516 69 278 1.0 3.0 0.00 0.00 0.00 55 1010.0
20260510013035 70 249 1.0 3.0 0.00 0.00 0.00 54 1009.9
20260510012514 70 267 1.0 3.0 0.00 0.00 0.00 54 1010.0
20260510012015 70 230 1.0 3.0 0.00 0.00 0.00 54 1009.9
20260510011541 70 253 1.0 3.0 0.00 0.00 0.00 53 1009.8
20260510011013 71 233 2.0 5.0 0.00 0.00 0.00 53 1009.7
20260510010513 71 263 2.0 5.0 0.00 0.00 0.00 52 1009.5
20260510010032 71 252 2.0 4.0 0.00 0.00 0.00 52 1009.4
20260510005513 71 276 2.0 4.0 0.00 0.00 0.00 51 1009.4
20260510005014 72 249 2.0 7.0 0.00 0.00 0.00 51 1009.3
20260510004532 72 267 2.0 7.0 0.00 0.00 0.00 51 1009.2
20260510004012 72 224 3.0 8.0 0.00 0.00 0.00 50 1009.2
20260510003514 73 186 3.0 8.0 0.00 0.00 0.00 49 1009.0
20260510003031 73 238 4.0 11.0 0.00 0.00 0.00 49 1009.0
20260510002514 73 293 3.0 11.0 0.00 0.00 0.00 48 1008.9
20260510002014 74 315 5.0 13.0 0.00 0.00 0.00 47 1008.8
20260510001534 74 228 4.0 13.0 0.00 0.00 0.00 47 1008.8
20260510001011 75 220 5.0 13.0 0.00 0.00 0.00 47 1008.6
20260510000515 75 193 3.0 10.0 0.00 0.00 0.00 47 1008.6
20260510000045 75 226 4.0 11.0 0.00 0.00 0.00 46 1008.5
20260509235516 75 285 3.0 13.0 0.00 0.00 0.00 46 1008.5
20260509235014 76 279 7.0 13.0 0.00 0.00 0.00 46 1008.3